GFSNIL_prec_cthk_057.txt.gz
RH
27 32 34 39 42 45 45 45 45 37 35 35 42 41 45 46 44 42 36 35 35 41
24 27 34 34 35 42 41 45 41 36 31 35 37 39 40 42 44 54 38 36 33 31
25 25 28 32 35 34 39 36 41 34 31 28 33 35 34 39 40 43 43 39 39 33
28 28 26 30 31 32 31 35 30 30 27 26 26 28 31 31 43 39 40 42 41 40
27 28 26 24 29 30 30 30 30 28 28 26 24 25 27 29 34 36 38 40 40 39
29 28 25 26 26 27 26 25 27 28 26 26 26 24 25 25 27 33 33 35 37 37
26 27 28 27 25 25 24 22 22 23 22 23 25 25 26 25 24 26 27 28 30 31
26 24 26 27 26 23 22 20 21 22 22 22 26 26 24 25 24 25 26 25 26 27
35 30 24 24 25 24 21 20 21 22 22 23 25 27 23 23 23 24 23 23 24 23
35 33 28 24 23 22 20 20 22 22 23 22 21 22 21 19 20 22 21 20 19 20
37 31 31 28 23 21 20 21 22 22 22 22 20 17 19 19 20 21 19 20 18 14
41 35 33 28 25 24 22 22 22 21 21 21 18 16 18 20 21 22 19 16 14 14
49 41 36 34 31 25 23 22 22 19 20 19 16 16 18 19 20 23 20 17 16 17
49 51 43 40 37 34 29 30 25 27 24 21 18 17 18 18 19 20 21 22 25 28

GFSNIL_prec_cthk_060.txt.gz
RH
27 29 34 41 40 50 41 44 42 41 36 32 40 38 48 41 37 31 29 31 37 39
22 24 30 33 38 38 37 43 41 39 36 30 29 36 39 39 44 56 39 27 27 28
22 20 23 28 30 34 33 36 45 38 32 27 25 29 34 33 37 43 43 31 31 27
24 23 21 23 26 28 31 32 37 37 31 27 23 24 29 29 37 38 39 38 38 33
28 25 23 22 24 26 26 30 28 30 29 26 24 22 24 25 27 35 36 34 37 37
30 28 24 23 22 23 24 25 26 24 24 24 23 21 20 21 22 26 31 32 31 33
26 26 25 22 22 24 23 21 24 23 22 23 22 21 19 20 22 21 23 26 26 28
28 26 28 27 24 22 22 21 21 21 21 22 22 21 21 20 21 23 21 22 24 24
39 36 29 27 27 27 24 21 21 20 20 21 21 20 23 22 21 23 23 21 21 24
40 38 36 32 28 29 28 27 22 19 19 19 19 20 24 23 22 22 22 22 21 21
46 41 37 37 32 28 29 28 26 22 19 18 18 19 22 24 23 22 22 20 18 20
48 47 38 34 32 32 29 26 25 22 19 17 17 18 20 23 23 23 22 21 20 19
52 50 46 38 34 32 30 27 24 21 20 19 19 19 21 22 23 23 22 22 19 18
50 51 51 50 43 37 33 31 29 27 25 24 20 19 21 21 21 23 24 21 19 16

GFSNIL_prec_cthk_063.txt.gz
RH
27 29 32 34 36 39 39 31 36 36 42 39 37 42 44 41 33 31 37 41 42 42
24 26 28 33 36 38 40 33 35 33 34 33 31 34 35 39 39 37 27 29 32 37
21 22 26 30 33 34 37 36 36 34 32 31 28 25 28 32 38 44 38 28 24 26
19 21 22 26 28 31 31 34 32 34 33 30 27 22 22 26 29 34 37 32 27 26
21 19 20 19 24 26 27 28 33 32 33 30 27 23 20 22 24 30 34 36 34 34
29 22 20 20 19 22 23 25 28 33 31 29 26 23 19 19 20 23 26 30 34 32
25 26 24 21 21 20 20 22 24 26 26 26 24 22 20 19 18 18 21 22 24 27
30 25 27 27 22 22 22 21 20 21 24 22 23 22 21 20 20 19 19 19 20 21
40 30 22 25 26 23 22 20 20 20 20 21 20 20 20 20 21 21 20 19 18 18
51 39 31 25 25 25 25 24 21 21 21 20 19 19 18 19 21 23 21 20 19 19
53 51 42 35 31 27 25 26 25 24 22 19 18 18 19 19 21 22 22 21 21 20
55 54 49 43 35 33 30 24 23 25 24 23 20 19 20 21 22 22 22 21 22 22
57 56 52 51 40 37 35 32 28 24 23 23 22 22 21 21 22 23 23 22 22 23
58 56 53 54 52 43 40 36 33 29 25 24 22 21 21 20 22 22 23 22 22 22

GFSNIL_prec_cthk_069.txt.gz
RH
33 44 44 48 48 47 44 49 48 46 46 45 46 48 46 38 34 39 38 39 42 40
29 37 43 45 43 43 47 51 47 49 46 43 43 43 43 43 37 33 37 38 37 38
27 29 34 42 40 41 43 47 42 43 44 44 42 46 40 43 41 33 30 34 34 36
25 24 27 31 35 38 41 39 39 40 39 40 40 42 40 38 39 37 30 28 30 31
27 24 23 25 29 34 36 39 41 38 37 39 38 38 36 36 33 35 35 31 27 26
34 29 24 22 24 29 33 35 39 39 37 35 35 35 32 32 30 27 30 34 34 31
38 35 31 28 22 24 28 32 34 36 37 36 35 34 33 30 29 25 24 27 30 32
40 39 37 35 32 27 22 25 29 33 34 34 35 36 34 30 27 25 23 23 24 25
45 41 39 39 38 36 34 25 22 25 29 30 31 31 32 32 31 28 25 22 21 22
54 47 41 41 42 39 36 37 33 25 23 23 25 26 26 28 29 29 26 24 23 23
64 62 54 47 42 42 40 36 35 35 32 26 22 21 24 25 26 26 26 25 23 23
72 71 68 56 50 48 47 42 35 32 31 30 28 26 24 23 23 22 21 21 21 22
76 77 75 68 58 54 54 50 46 38 31 26 25 28 27 27 26 23 22 20 19 19
73 75 76 74 70 63 56 55 51 46 44 37 29 24 26 29 29 26 24 21 20 18

GFSNIL_prec_cthk_072.txt.gz
RH
35 38 40 47 49 50 46 44 48 47 46 50 52 51 48 44 43 43 44 44 42 39
34 34 38 42 44 49 44 44 53 55 50 47 51 49 46 45 42 42 41 40 40 40
33 32 34 40 43 42 41 47 49 51 51 47 50 48 46 42 41 39 37 39 39 39
36 32 31 33 38 39 38 42 45 43 44 48 51 51 51 47 41 37 35 31 33 35
40 34 30 29 30 34 36 39 39 39 36 37 42 48 45 44 43 37 34 34 29 29
47 40 33 30 27 27 29 32 36 37 36 36 37 40 40 39 39 37 33 31 32 32
52 47 41 35 31 27 25 28 29 32 35 36 36 36 36 36 36 34 32 29 28 30
48 50 50 44 38 34 31 25 26 29 30 33 33 32 31 31 31 33 33 31 30 29
54 46 49 49 46 41 37 34 28 23 25 27 29 29 30 29 28 28 28 28 29 29
60 55 45 47 47 45 42 41 38 34 26 22 23 24 25 26 27 26 25 24 24 24
67 60 55 49 47 46 46 44 43 41 38 34 29 25 23 23 23 23 21 20 20 21
69 66 61 55 51 51 50 46 43 43 41 38 36 34 33 30 23 21 19 19 20 19
74 74 71 64 62 59 56 48 46 44 40 37 36 35 33 35 34 30 23 21 19 18
82 83 78 72 73 74 69 66 57 49 45 39 35 35 35 33 33 32 31 26 22 21

GFSNIL_prec_cthk_075.txt.gz
RH
39 38 42 48 50 53 54 49 48 47 51 57 51 49 47 44 44 42 40 42 45 39
41 39 39 43 45 50 52 50 44 48 50 48 53 50 46 42 45 44 41 39 40 38
44 42 38 39 42 44 48 49 47 49 51 53 51 50 47 42 38 40 39 37 36 37
46 42 40 37 38 42 44 46 45 51 51 48 50 49 47 48 42 36 36 34 34 34
50 47 42 40 36 37 40 42 42 44 44 43 47 49 50 50 46 45 37 33 31 29
54 53 48 43 38 34 34 37 41 40 41 39 35 40 43 42 48 43 37 34 31 31
52 53 50 48 44 39 34 32 33 35 37 39 36 34 36 38 38 37 37 33 29 27
47 49 56 48 46 45 42 37 30 30 32 36 37 36 34 33 33 32 32 33 31 29
56 52 48 48 46 44 43 42 40 35 29 29 32 33 31 31 30 29 28 28 28 29
62 56 50 47 47 44 41 41 39 38 37 33 27 26 29 30 31 28 27 26 24 24
72 69 68 60 54 50 45 43 41 39 38 36 34 31 26 24 26 27 25 24 23 23
76 75 75 72 62 55 48 45 43 42 39 38 35 35 34 34 32 26 22 20 20 19
82 81 77 76 74 71 58 50 47 44 42 39 36 36 37 38 38 37 33 28 23 19
87 88 83 80 78 78 72 63 55 48 47 46 41 39 38 38 39 37 35 32 29 25

GFSNIL_prec_cthk_078.txt.gz
RH
41 43 50 55 56 57 62 64 53 46 54 54 49 43 42 47 44 47 46 46 41 45
44 42 47 51 54 54 57 60 53 50 51 55 53 50 47 44 44 44 43 44 39 38
49 45 43 43 45 49 56 56 56 49 50 54 51 51 47 45 42 44 46 43 44 38
51 50 46 44 41 41 46 50 53 51 53 60 53 49 46 44 43 39 42 39 38 35
51 52 53 45 43 42 41 47 50 52 54 60 61 52 48 48 48 46 42 37 35 34
53 51 51 50 46 45 41 38 44 47 48 51 53 53 46 47 48 47 46 40 35 32
57 47 50 47 46 47 44 41 35 38 43 43 50 47 45 39 42 46 44 43 36 32
51 48 53 47 55 46 45 43 41 37 33 35 39 41 41 38 38 43 42 37 34 33
59 56 48 46 44 58 44 42 41 39 36 34 32 36 37 37 41 38 37 36 33 29
63 64 59 56 50 44 42 46 40 37 38 34 31 30 28 30 33 36 36 33 33 31
74 70 76 69 62 53 49 45 43 40 36 34 31 29 28 27 26 27 29 32 31 30
86 82 73 80 72 67 60 56 52 46 41 38 33 31 29 30 30 28 23 21 22 24
83 85 81 83 83 83 78 71 64 58 51 42 36 35 35 36 35 35 32 30 26 22
77 81 83 88 85 85 83 79 76 70 64 49 42 39 38 40 41 38 37 36 36 32

GFSNIL_prec_cthk_084.txt.gz
RH
34 38 46 55 59 61 77 81 66 63 46 47 47 40 40 39 33 35 33 30 28 37
36 34 35 40 48 55 57 72 76 73 51 45 48 47 50 42 47 43 46 37 32 36
37 36 37 40 45 50 62 63 69 84 55 45 50 48 45 42 44 43 41 38 39 31
41 42 40 40 37 40 49 54 58 57 56 45 51 51 47 47 54 55 44 40 46 48
42 44 44 41 42 39 38 37 40 47 48 48 58 55 58 46 42 49 44 39 40 38
44 45 46 43 45 45 42 41 37 36 42 47 52 50 55 55 47 46 50 46 42 38
58 48 47 48 51 47 46 44 42 39 39 39 42 43 44 47 50 46 49 49 44 38
74 56 53 53 52 50 49 44 43 42 41 40 37 39 36 39 41 41 43 46 44 42
86 69 56 58 60 59 50 54 49 44 42 40 38 37 39 37 38 37 33 36 38 34
80 79 73 63 64 64 60 54 50 50 51 50 46 41 38 39 36 34 36 39 38 37
83 82 75 72 71 68 63 58 57 50 49 49 47 48 45 42 40 37 31 31 33 36
74 78 80 78 73 69 69 65 60 58 56 54 51 49 48 49 48 43 37 32 30 31
53 61 68 77 82 78 75 73 72 71 75 71 68 66 56 56 54 47 45 42 37 33
42 40 46 51 61 76 81 79 81 80 80 80 80 79 77 67 67 64 55 46 43 40

GFSNIL_prec_cthk_087.txt.gz
RH
49 61 61 61 63 64 65 62 54 55 49 44 40 38 40 35 29 33 32 30 34 41
41 46 50 55 55 59 62 64 68 69 52 42 44 41 41 40 39 39 37 29 26 31
40 36 38 48 48 50 50 49 75 71 48 42 43 42 44 44 42 46 41 36 33 33
39 42 39 39 43 46 48 52 54 63 64 48 49 44 46 45 50 50 46 40 37 34
42 40 40 41 39 39 42 43 42 48 50 53 50 51 53 52 45 45 50 40 36 38
44 43 42 44 45 41 41 39 38 39 42 43 44 53 51 57 56 46 45 44 40 37
63 61 56 50 51 50 46 44 42 39 36 39 39 44 45 46 48 51 47 49 51 44
75 75 69 69 56 61 60 53 48 45 42 39 40 40 40 39 40 43 46 47 45 44
75 71 91 77 64 60 65 64 60 54 47 45 41 40 39 39 40 40 40 39 41 39
93 96 86 85 75 63 65 65 61 63 60 58 51 52 49 49 43 41 39 38 36 40
86 88 86 84 85 75 71 74 67 63 60 56 57 60 59 61 57 48 43 38 37 38
70 74 78 82 86 81 72 70 70 68 63 62 58 57 59 62 62 57 53 48 44 39
63 64 64 63 68 77 82 77 71 70 66 64 67 65 66 64 65 62 53 56 52 47
39 38 38 38 40 44 54 68 77 76 74 76 74 73 76 79 77 73 72 61 60 60

GFSNIL_prec_cthk_093.txt.gz
RH
47 52 70 64 75 70 70 60 52 53 50 45 46 40 37 35 39 43 42 43 48 49
44 49 63 66 67 71 69 67 64 60 60 61 49 42 48 38 33 37 39 37 37 42
40 46 54 60 64 66 72 81 73 71 71 58 48 48 49 45 44 40 39 38 37 36
36 42 53 50 56 58 62 62 59 76 75 60 50 44 49 50 50 46 47 46 39 36
30 42 51 50 43 48 51 55 57 69 83 74 57 53 53 49 52 51 47 51 49 43
36 36 43 49 46 44 45 51 55 62 65 67 59 57 57 58 62 55 50 53 47 44
47 51 48 49 54 50 47 47 47 49 51 58 58 53 55 57 64 64 57 57 51 46
65 64 61 58 60 60 60 56 53 53 50 52 52 48 48 50 51 59 56 54 54 55
80 80 74 72 70 71 69 71 65 59 57 58 51 48 48 48 47 46 47 47 48 51
87 88 86 86 84 84 79 81 79 76 72 71 69 60 55 51 50 50 48 44 43 45
90 92 90 90 93 94 89 86 90 84 82 81 79 71 68 62 60 60 60 60 53 47
84 80 86 89 90 92 95 94 92 85 84 82 83 77 77 72 67 66 65 69 66 55
60 60 68 77 87 86 89 88 88 86 87 86 88 90 87 78 67 63 61 68 70 70
59 61 61 61 62 78 80 83 84 84 82 88 89 90 86 73 69 66 63 63 68 69